• Join FlightAware (Why Join?)
  • Login
  • US Flag 
12:40AM EDT


 

Airport Tracker/Info


-or-


 

Live Flight TrackerFlight Track Log ✈ N474RL ✈ 28-Dec-2013 ✈ KORL - KGYH

Flight Track Log - Related Links

Times and Time Zones

All times are in EST time to prevent confusion due to time zone crossing. See the N474RL flight status page for this flight to view local times or setup timezone preferences in your user account.

Time Position Orientation Groundspeed Altitude Reporting Facility
EST Latitude Longitude Course Direction KTS MPH feet Rate Location/Type
11:12AM 28.5493 -81.3225 68° East 102 117 200  Level FlightAware ADS-B (KMCO)
11:13AM 28.5549 -81.3121 58° Northeast 120 138 500 840 Climbing FlightAware ADS-B (KMCO)
11:13AM 28.5643 -81.3027 41° Northeast 124 143 800 1,020 Climbing FlightAware ADS-B (KMCO)
11:13AM 28.5734 -81.2941 40° Northeast 122 140 1,200 720 Climbing FlightAware ADS-B (KMCO)
11:14AM 28.5843 -81.2872 29° Northeast 156 180 1,300 120 Climbing FlightAware ADS-B (KMCO)
11:14AM 28.5996 -81.2896 352° North 173 199 1,300  Level FlightAware ADS-B (KMCO)
11:14AM 28.6171 -81.2937 348° North 182 209 1,300  Level FlightAware ADS-B (KMCO)
11:15AM 28.6330 -81.2975 348° North 182 209 1,300 540 Level FlightAware ADS-B (KMCO)
11:15AM 28.6493 -81.3017 347° North 166 191 1,700 720 Climbing FlightAware ADS-B (KSFB)
11:15AM 28.6637 -81.3053 347° North 175 201 1,800 120 Climbing FlightAware ADS-B (KSFB)
11:16AM 28.6799 -81.3132 337° Northwest 188 216 1,800 -180 Level FlightAware ADS-B (KMCO)
11:16AM 28.6962 -81.3224 333° Northwest 190 219 1,700  Descending FlightAware ADS-B (KSFB)
11:16AM 28.7003 -81.3228 355° North 185 213 1,800 240 Climbing FlightAware ADS-B (KMCO)
11:16AM 28.7128 -81.3179 19° North 178 205 1,800  Level FlightAware ADS-B (KSFB)
11:17AM 28.7268 -81.3099 26° Northeast 178 205 1,800  Level FlightAware ADS-B (KSFB)
11:17AM 28.7305 -81.3079 26° Northeast 178 205 1,800  Level FlightAware ADS-B (KMCO)
11:17AM 28.7414 -81.3017 26° Northeast 178 205 1,800 480 Level FlightAware ADS-B (KSFB)
11:17AM 28.7541 -81.2948 26° Northeast 161 185 2,100 1,020 Climbing FlightAware ADS-B (KMCO)
11:18AM 28.7679 -81.2875 25° Northeast 149 171 2,500 960 Climbing FlightAware ADS-B (KMCO)
11:18AM 28.7811 -81.2808 24° Northeast 147 169 2,800 780 Climbing FlightAware ADS-B (KSFB)
11:18AM 28.7878 -81.2773 25° Northeast 148 170 2,900 780 Climbing FlightAware ADS-B (KMCO)
11:18AM 28.7987 -81.2717 24° Northeast 151 174 3,200 720 Climbing FlightAware ADS-B (KSFB)
11:19AM 28.8081 -81.2710 North 158 182 3,300 840 Climbing FlightAware ADS-B (KMCO)
11:19AM 28.8110 -81.2717 349° North 157 181 3,600 720 Climbing FlightAware ADS-B (KSFB)
11:19AM 28.8308 -81.2761 349° North 158 182 3,800 720 Climbing FlightAware ADS-B (KSFB)
11:20AM 28.8487 -81.2800 349° North 158 182 4,100 720 Climbing FlightAware ADS-B (KSFB)
11:20AM 28.8647 -81.2838 348° North 161 185 4,300 600 Climbing FlightAware ADS-B (KSFB)
11:20AM 28.8764 -81.2905 333° Northwest 162 186 4,500 960 Climbing FlightAware ADS-B (KSFB)
11:21AM 28.9076 -81.3090 333° Northwest 150 173 5,400 960 Climbing FlightAware ADS-B (KSFB)
11:21AM 28.9180 -81.3151 333° Northwest 149 171 5,700 900 Climbing FlightAware ADS-B (KSFB)
11:22AM 28.9331 -81.3241 333° Northwest 147 169 6,100 900 Climbing FlightAware ADS-B (KMCO)
11:22AM 28.9487 -81.3321 336° Northwest 144 166 6,400 720 Climbing FlightAware ADS-B (KMCO)
11:22AM 28.9551 -81.3327 355° North 144 166 6,600 480 Climbing FlightAware ADS-B (KSFB)
11:23AM 28.9709 -81.3345 354° North 159 183 6,700 120 Climbing FlightAware ADS-B (KSFB)
11:23AM 28.9955 -81.3377 354° North 177 204 6,700  Level FlightAware ADS-B (KMCO)
11:24AM 29.0125 -81.3399 353° North 182 209 6,700  Level FlightAware ADS-B (KMCO)
11:24AM 29.0304 -81.3423 353° North 186 214 6,700  Level FlightAware ADS-B (KMCO)
11:24AM 29.0482 -81.3446 354° North 190 219 6,700  Level FlightAware ADS-B (KMCO)
11:25AM 29.0691 -81.3472 354° North 190 219 6,700  Level FlightAware ADS-B (KMCO)
11:26AM 29.1585 -81.3586 354° North 191 220 6,700  Level FlightAware ADS-B (KMCO)
11:27AM 29.1702 -81.3601 354° North 191 220 6,700  Level FlightAware ADS-B (KMCO)
11:27AM 29.1908 -81.3627 354° North 191 220 6,700  Level FlightAware ADS-B (KMCO)
11:28AM 29.2292 -81.3676 354° North 191 220 6,700  Level FlightAware ADS-B (KMCO)
11:28AM 29.2469 -81.3698 354° North 191 220 6,700  Level FlightAware ADS-B (KMCO)
11:28AM 29.2612 -81.3716 354° North 191 220 6,700  Level FlightAware ADS-B (KMCO)
11:30AM 29.3369 -81.3813 354° North 191 220 6,700  Level FlightAware ADS-B (KMCO)
11:30AM 29.3506 -81.3830 354° North 192 221 6,700  Level FlightAware ADS-B (KMCO)
11:30AM 29.3555 -81.3836 354° North 192 221 6,700 240 Level FlightAware ADS-B (KMCO)
11:31AM 29.3997 -81.3908 354° North 192 221 7,000 180 Climbing Jacksonville Center
11:32AM 29.4456 -81.3997 350° North 191 220 7,000  Level Jacksonville Center
11:33AM 29.5022 -81.4058 355° North 191 220 7,000  Level Jacksonville Center
11:34AM 29.5564 -81.4122 354° North 191 220 7,000  Level Jacksonville Center
11:34AM 29.5689 -81.4144 351° North 190 219 7,000  Level Jacksonville Center
11:35AM 29.6192 -81.4208 354° North 191 220 7,000  Level Jacksonville Center
11:36AM 29.6589 -81.4250 355° North 192 221 7,000  Level Jacksonville Center
11:37AM 29.7194 -81.4314 355° North 189 217 7,000  Level Jacksonville Center
11:38AM 29.7675 -81.4403 351° North 186 214 7,000  Level Jacksonville Center
11:39AM 29.8200 -81.4442 356° North 182 209 7,000  Level Jacksonville Center
11:40AM 29.8722 -81.4506 354° North 186 214 7,000  Level Jacksonville Center
11:41AM 29.9203 -81.4572 353° North 188 216 7,000  Level Jacksonville Center
11:42AM 29.9725 -81.4658 352° North 185 213 7,000  Level Jacksonville Center
11:43AM 30.0247 -81.4722 354° North 183 211 7,000  Level Jacksonville Center
11:44AM 30.0833 -81.4786 355° North 186 214 7,000  Level Jacksonville Center
11:45AM 30.1314 -81.4853 353° North 192 221 7,000  Level Jacksonville Center
11:46AM 30.1878 -81.4939 352° North 191 220 7,000  Level Jacksonville Center
11:47AM 30.2358 -81.4981 356° North 190 219 7,000  Level Jacksonville Center
11:48AM 30.2967 -81.5044 355° North 184 212 7,000  Level Jacksonville Center
11:49AM 30.3489 -81.5133 352° North 188 216 7,000  Level Jacksonville Center
11:50AM 30.4011 -81.5247 349° North 186 214 7,000  Level Jacksonville Center
11:51AM 30.4514 -81.5311 354° North 191 220 7,000  Level Jacksonville Center
11:52AM 30.5078 -81.5447 348° North 193 222 7,000  Level Jacksonville Center
11:53AM 30.5622 -81.5561 350° North 192 221 7,000  Level Jacksonville Center
11:54AM 30.6125 -81.5625 354° North 193 222 7,000  Level Jacksonville Center
11:55AM 30.6689 -81.5739 350° North 194 223 7,000  Level Jacksonville Center
11:56AM 30.7211 -81.5853 349° North 199 229 7,000  Level Jacksonville Center
11:57AM 30.7756 -81.5942 352° North 199 229 7,000 -60 Level Jacksonville Center
11:58AM 30.8278 -81.6031 352° North 199 229 6,900 -60 Descending Jacksonville Center
11:59AM 30.8803 -81.6144 349° North 199 229 6,900  Level Jacksonville Center
12:00PM 30.9347 -81.6233 352° North 199 229 6,900  Level Jacksonville Center
12:01PM 30.9828 -81.6325 351° North 193 222 6,900  Level Jacksonville Center
12:02PM 31.0331 -81.6439 349° North 183 211 6,900  Level Jacksonville Center
12:03PM 31.0853 -81.6531 351° North 183 211 6,900  Level Jacksonville Center
12:04PM 31.1375 -81.6619 352° North 177 204 7,000  Climbing Jacksonville Center
12:05PM 31.1897 -81.6733 349° North 182 209 7,000  Level Jacksonville Center
12:06PM 31.2358 -81.6803 353° North 182 209 7,000  Level Jacksonville Center
12:07PM 31.2861 -81.6892 351° North 183 211 7,000  Level Jacksonville Center
12:08PM 31.3425 -81.7006 350° North 183 211 7,000  Level Jacksonville Center
12:09PM 31.3947 -81.7097 351° North 183 211 7,000  Level Jacksonville Center
12:10PM 31.4469 -81.7211 349° North 183 211 7,000  Level Jacksonville Center
12:11PM 31.4931 -81.7303 350° North 183 211 7,000  Level Jacksonville Center
12:12PM 31.5475 -81.7394 352° North 183 211 7,000 -60 Level Jacksonville Center
12:13PM 31.6061 -81.7508 351° North 183 211 6,900 -60 Descending Jacksonville Center
12:14PM 31.6561 -81.7625 349° North 183 211 6,900  Level Jacksonville Center
12:15PM 31.7106 -81.7717 352° North 183 211 6,900  Level Jacksonville Center
12:16PM 31.7567 -81.7808 350° North 188 216 7,000 360 Climbing Jacksonville Center
12:17PM 31.8025 -81.7900 350° North 175 201 7,700 480 Climbing Jacksonville Center
12:18PM 31.8550 -81.7992 352° North 162 186 8,000 120 Climbing Jacksonville Center
12:19PM 31.9050 -81.8108 349° North 173 199 8,000  Level Jacksonville Center
12:21PM 31.9783 -81.8247 351° North 209 241 8,000 -60 Level Jacksonville Center
12:22PM 32.0328 -81.8339 352° North 212 244 7,900 -60 Descending Jacksonville Center
12:23PM 32.0850 -81.8456 349° North 196 226 7,900  Level Jacksonville Center
12:24PM 32.1331 -81.8547 351° North 196 226 7,900  Level Jacksonville Center
12:25PM 32.1875 -81.8639 352° North 191 220 8,000  Climbing Jacksonville Center
12:26PM 32.2661 -81.8797 348° North 198 228 8,000  Level Atlanta Center
12:27PM 32.2430 -81.8775 348° North  Level FlightAware Approximate
12:28PM 32.3708 -81.8969 352° North 198 228 8,000  Level Atlanta Center
12:29PM 32.4253 -81.9053 353° North 198 228 8,000  Level Atlanta Center
12:30PM 32.4756 -81.9189 347° North 193 222 8,000  Level Atlanta Center
12:31PM 32.5281 -81.9300 351° North 193 222 8,000  Level Atlanta Center
12:32PM 32.5321 -81.9298 351° North  Level FlightAware Approximate
12:32PM 32.5803 -81.9411 350° North 193 222 8,000  Level Atlanta Center
12:34PM 32.6831 -81.9608 351° North 181 208 8,000  Level Atlanta Center
12:35PM 32.7311 -81.9769 344° North 181 208 8,000  Level Atlanta Center
12:36PM 32.7856 -81.9781 359° North 181 208 8,000  Level Atlanta Center
12:37PM 32.8336 -81.9919 346° North 181 208 8,000  Level Atlanta Center
12:38PM 32.8861 -81.9981 354° North 181 208 8,000  Level Atlanta Center
12:39PM 32.9383 -82.0092 350° North 181 208 8,000  Level Atlanta Center
12:40PM 32.9867 -82.0206 349° North 181 208 8,000  Level Atlanta Center
12:41PM 33.0389 -82.0292 352° North 181 208 8,000  Level Atlanta Center
12:42PM 33.0914 -82.0403 350° North 181 208 8,000  Level Atlanta Center
12:44PM 33.1472 -82.0512 351° North  Level FlightAware Approximate
12:51PM 33.4872 -82.1181 351° North  Level FlightAware Approximate
12:52PM 33.5358 -82.1277 351° North  Level FlightAware Approximate
12:53PM 33.5843 -82.1373 351° North  Level FlightAware Approximate
12:54PM 33.6329 -82.1469 351° North  Level FlightAware Approximate
12:55PM 33.6814 -82.1566 351° North  Level FlightAware Approximate
12:56PM 33.7300 -82.1662 351° North  Level FlightAware Approximate
12:57PM 33.7785 -82.1758 351° North  Level FlightAware Approximate
12:58PM 33.8271 -82.1855 351° North  Level FlightAware Approximate
12:59PM 33.8757 -82.1952 351° North  Level FlightAware Approximate
01:00PM 33.9242 -82.2049 351° North  Level FlightAware Approximate
01:01PM 33.9728 -82.2146 351° North  Level FlightAware Approximate
01:02PM 34.0213 -82.2243 351° North  Level FlightAware Approximate
01:03PM 34.0699 -82.2340 351° North  Level FlightAware Approximate
01:04PM 34.1185 -82.2437 351° North  Level FlightAware Approximate
01:05PM 34.1670 -82.2534 351° North  Level FlightAware Approximate
01:06PM 34.2156 -82.2631 351° North  Level FlightAware Approximate
01:07PM 34.2641 -82.2728 351° North  Level FlightAware Approximate
01:08PM 34.3127 -82.2825 351° North  Level FlightAware Approximate
01:09PM 34.3618 -82.2833 North  Level FlightAware Approximate
01:10PM 34.4101 -82.2942 348° North  Level FlightAware Approximate
01:11PM 34.4583 -82.3062 348° North  Level FlightAware Approximate
01:12PM 34.5067 -82.3167 North  Level FlightAware Approximate
01:13PM 34.5551 -82.3263 348° North  Level FlightAware Approximate
01:14PM 34.6033 -82.3383 348° North  Level FlightAware Approximate
01:15PM 34.6515 -82.3503 348° North  Level FlightAware Approximate
01:16PM 34.6997 -82.3624 348° North  Level FlightAware Approximate
01:17PM 34.7486 -82.3667 North  Level FlightAware Approximate
01:18PM 34.7500 -82.3667 North  Level FlightAware Approximate
01:19PM 34.7583 -82.3764 North  Level Estimated
01:20PM 34.7583 -82.3764 North  Level Estimated
01:21PM 34.7583 -82.3764 North  Level Estimated
01:22PM 34.7583 -82.3764 North  Level Estimated
01:23PM 34.7583 -82.3764 North  Level Estimated